Погода в Маньково-Калитвенском

Россия / Ростовская область     49°23′31″N   40°16′17″E
темп.,
°C
ветер,
м/с
пор.,
м/с
влажн.,
%
обл.,
%
осадки,
мм/ч
давл.,
гПа
погр.,
м
13 апреля, вт
вт1300:00+13вюв5126091 0.0 1023276
03:00+11в487051 0.0 1024141
06:00+10в51366100 0.0 1024274
09:00+14вюв71244100 0.1 1024615
12:00+19юв812432 0.0 10231308
15:00+21юв9143718 0.0 10222310
18:00+19юв5945100 0.0 1021408
21:00+15вюв365574 0.0 1022138
14 апреля, ср
ср1400:00+11в3754100 0.0 1021110
03:00+10в365737 0.0 1020100
06:00+9вюв496130 0.0 1020174
09:00+14юв61040100 0.0 1020632
12:00+17юв453179 0.0 10181202
15:00+20вюв682974 0.0 10172316
18:00+17юв61040100 0.0 1017507
21:00+14зюз2355100 0.0 101737
15 апреля, чт
чт1500:00+12ссз3666100 0.0 1016130
03:00+12св2465100 0.0 101674
06:00+12ссв2364100 0.0 101546
09:00+15ююз2251100 0.0 1015380
12:00+18юз354298 0.0 10152035
15:00+18ю4543100 0.0 10151969
18:00+16ю3551100 0.0 1015435
21:00+14вюв355699 0.1 101494
16 апреля, пт
пт1600:00+12ю226438 0.0 101428
03:00+11вюв227674 0.0 101541
06:00+10зюз227781 0.0 101527
09:00+14зсз225895 0.0 1015431
12:00+17юз334355 0.3 10151949
15:00+19юз233398 0.3 10142560
18:00+16зсз1250100 0.0 101471
21:00+13зюз71069100 0.0 1015352
17 апреля, сб
сб1700:00+12з2280100 0.0 1016119
03:00+10юз3692100 1.6 1016234
06:00+10зюз3589100 2.4 1016298
09:00+11зюз4474100 2.8 1018840
12:00+11з557396 0.1 1020745
15:00+13зсз4462100 0.1 10201142
18:00+12зсз446599 0.1 1021649
21:00+10с3780100 0.1 1022346